Weather History for Jackson, WY

Change the Weather History Date:

Saturday, July 13, 2013

  Actual Average Record
Temperature  
Mean Temperature 58 °F -  
Max Temperature 73 °F 78 °F 91 °F (2002)
Min Temperature 42 °F 41 °F 28 °F (1993)
Degree Days  
Heating Degree Days 8    
Growing Degree Days 8 (Base 50)    
Moisture  
Dew Point 47 °F    
Average Humidity 75    
Maximum Humidity 94    
Minimum Humidity 47    
Precipitation  
Precipitation 0.00 in - - ()
Sea Level Pressure  
Sea Level Pressure 30.22 in    
Wind  
Wind Speed 3 mph (West)    
Max Wind Speed 13 mph    
Max Gust Speed 18 mph    
Visibility 10 miles    
Events Rain , Thunderstorm    
Averages and records for this station are not official NWS values.
T = Trace of Precipitation, MM = Missing Value Source: NWS Daily Summary

Daily Weather History Graph

Daily Weather History Graph

Search for Another Location

Airport:

Trip Planner

Search our weather history database for the weather conditions in past years. The results will help you decide how hot, cold, wet, or windy it might be!

Date:

Astronomy

Jul. 13, 2013 Rise Set
Actual Time 5:53 AM MDT 9:03 PM MDT
Civil Twilight 5:19 AM MDT 9:37 PM MDT
Nautical Twilight 4:34 AM MDT 10:22 PM MDT
Astronomical Twilight 3:40 AM MDT 11:16 PM MDT
Moon 11:25 AM MDT (7/13) 11:32 PM MDT (7/13)
Length of Visible Light 16h 18m
Length of Day
15h 09m
Waxing Crescent, 26% of the Moon is Illuminated
Jul 13
Waxing Crescent
Jul 15
First Quarter
Jul 22
Full
Jul 29
Last Quarter
Aug 6
New

Hourly Weather History & Observations

Time (MDT) Temp. Windchill Dew Point Humidity Pressure Visibility Wind Dir Wind Speed Gust Speed Precip Events Conditions
12:15 AM 50.0 °F - 42.8 °F 76% 30.16 in 10.0 mi Calm Calm - N/A   Clear
12:35 AM 53.6 °F - 41.0 °F 62% 30.17 in 10.0 mi Calm Calm - N/A   Clear
12:55 AM 53.6 °F - 41.0 °F 62% 30.17 in 10.0 mi Calm Calm - N/A   Clear
1:15 AM 50.0 °F - 41.0 °F 71% 30.17 in 10.0 mi Calm Calm - N/A   Clear
1:35 AM 50.0 °F - 41.0 °F 71% 30.17 in 10.0 mi East 3.5 mph - N/A   Clear
1:55 AM 50.0 °F - 42.8 °F 76% 30.17 in 10.0 mi Calm Calm - N/A   Clear
2:15 AM 48.2 °F - 44.6 °F 87% 30.16 in 10.0 mi Calm Calm - N/A   Clear
2:35 AM 48.2 °F - 44.6 °F 87% 30.17 in 10.0 mi Calm Calm - N/A   Clear
3:15 AM 48.2 °F - 42.8 °F 82% 30.17 in 10.0 mi North 3.5 mph - N/A   Clear
3:35 AM 44.6 °F 41.4 °F 42.8 °F 93% 30.17 in 10.0 mi North 5.8 mph - N/A   Clear
3:55 AM 44.6 °F 40.7 °F 41.0 °F 87% 30.17 in 10.0 mi North 6.9 mph - N/A   Clear
4:15 AM 44.6 °F 40.7 °F 41.0 °F 87% 30.18 in 10.0 mi North 6.9 mph - N/A   Clear
4:35 AM 44.6 °F 40.7 °F 41.0 °F 87% 30.18 in 10.0 mi North 6.9 mph - N/A   Clear
4:55 AM 44.6 °F 40.7 °F 41.0 °F 87% 30.18 in 10.0 mi North 6.9 mph - N/A   Clear
5:15 AM 44.6 °F 42.2 °F 41.0 °F 87% 30.19 in 10.0 mi NW 4.6 mph - N/A   Clear
5:35 AM 44.6 °F 41.4 °F 41.0 °F 87% 30.19 in 10.0 mi North 5.8 mph - N/A   Clear
5:55 AM 44.6 °F 42.2 °F 41.0 °F 87% 30.19 in 10.0 mi NNE 4.6 mph - N/A   Clear
6:15 AM 42.8 °F 40.1 °F 39.2 °F 87% 30.19 in 10.0 mi NNW 4.6 mph - N/A   Clear
6:35 AM 46.4 °F 45.2 °F 41.0 °F 81% 30.20 in 10.0 mi North 3.5 mph - N/A   Clear
6:51 AM 46.4 °F - 42.8 °F 87% 30.20 in 10.0 mi Calm Calm - N/A   Clear
7:52 AM 53.6 °F - 42.8 °F 67% 30.21 in 10.0 mi NW 3.5 mph - N/A   Clear
8:32 AM 57.2 °F - 44.6 °F 63% 30.22 in 10.0 mi West 3.5 mph - N/A Thunderstorm Thunderstorm
8:51 AM 55.4 °F - 44.6 °F 67% 30.26 in 6.0 mi WSW 9.2 mph - N/A Rain , Thunderstorm Thunderstorms and Rain
9:58 AM 55.4 °F - 50.0 °F 82% 30.28 in 8.0 mi East 11.5 mph 17.3 mph N/A   Overcast
10:55 AM 55.4 °F - 53.6 °F 94% 30.29 in 10.0 mi West 8.1 mph - N/A   Overcast
11:54 AM 59.0 °F - 53.6 °F 82% 30.28 in 10.0 mi WSW 5.8 mph - N/A   Partly Cloudy
12:53 PM 62.6 °F - 53.6 °F 72% 30.29 in 10.0 mi South 6.9 mph - N/A   Mostly Cloudy
1:55 PM 64.4 °F - 51.8 °F 64% 30.29 in 10.0 mi SSW 9.2 mph - N/A   Scattered Clouds
2:51 PM 66.2 °F - 53.6 °F 64% 30.28 in 10.0 mi SSW 9.2 mph - N/A   Partly Cloudy
3:51 PM 69.8 °F - 51.8 °F 53% 30.27 in 10.0 mi SSW 11.5 mph - N/A   Scattered Clouds
4:51 PM 71.6 °F - 51.8 °F 50% 30.25 in 10.0 mi SW 12.7 mph 18.4 mph N/A   Clear
5:51 PM 73.4 °F - 51.8 °F 47% 30.22 in 10.0 mi SSW 9.2 mph - N/A   Clear
6:51 PM 71.6 °F - 51.8 °F 50% 30.22 in 10.0 mi SW 11.5 mph - N/A   Clear
7:51 PM 68.0 °F - 53.6 °F 60% 30.22 in 10.0 mi SW 8.1 mph - N/A   Clear
8:51 PM 64.4 °F - 53.6 °F 68% 30.23 in 10.0 mi SW 5.8 mph - N/A   Clear
9:15 PM 64.4 °F - 53.6 °F 68% 30.24 in 10.0 mi SSW 3.5 mph - N/A   Clear
9:35 PM 64.4 °F - 55.4 °F 73% 30.24 in 10.0 mi Calm Calm - N/A   Clear
9:55 PM 64.4 °F - 53.6 °F 68% 30.25 in 10.0 mi Calm Calm - N/A   Clear
10:15 PM 62.6 °F - 53.6 °F 72% 30.25 in 10.0 mi WSW 3.5 mph - N/A   Clear
10:35 PM 62.6 °F - 53.6 °F 72% 30.26 in 10.0 mi SW 3.5 mph - N/A   Clear
10:55 PM 60.8 °F - 53.6 °F 77% 30.26 in 10.0 mi SE 3.5 mph - N/A   Clear
11:15 PM 60.8 °F - 53.6 °F 77% 30.26 in 10.0 mi Calm Calm - N/A   Clear
11:35 PM 57.2 °F - 51.8 °F 82% 30.27 in 10.0 mi East 4.6 mph - N/A   Clear
11:55 PM 57.2 °F - 51.8 °F 82% 30.27 in 10.0 mi Calm Calm - N/A   Clear